Time,TemperatureF,DewpointF,PressureIn,WindDirection,WindDirectionDegrees,WindSpeedMPH,WindSpeedGustMPH,Humidity,HourlyPrecipIn,Conditions,Clouds,dailyrainin,SoftwareType,DateUTC
2013-06-10 00:02:00,68.7,68.1,29.85,ESE,112,0.0,-999.0,98,-99.99,,,0.00,Acu-Link.com,2013-06-10 05:02:00,
2013-06-10 00:18:00,69.1,68.5,29.85,South,180,0.0,-999.0,98,-99.99,,,0.00,Acu-Link.com,2013-06-10 05:18:00,
2013-06-10 00:33:00,69.1,68.5,29.85,SSE,157,0.0,-999.0,98,-99.99,,,0.00,Acu-Link.com,2013-06-10 05:33:00,
2013-06-10 00:48:00,68.9,68.3,29.85,SSE,157,0.0,-999.0,98,-99.99,,,0.00,Acu-Link.com,2013-06-10 05:48:00,
2013-06-10 01:03:00,68.7,68.1,29.84,South,180,0.0,-999.0,98,-99.99,,,0.00,Acu-Link.com,2013-06-10 06:03:00,
2013-06-10 01:18:00,68.9,68.3,29.85,South,180,0.0,-999.0,98,-99.99,,,0.00,Acu-Link.com,2013-06-10 06:18:00,
2013-06-10 01:34:00,68.5,67.9,29.84,South,180,0.0,-999.0,98,-99.99,,,0.00,Acu-Link.com,2013-06-10 06:34:00,
2013-06-10 01:49:00,68.4,67.8,29.85,NE,45,0.0,-999.0,98,-99.99,,,0.00,Acu-Link.com,2013-06-10 06:49:00,
2013-06-10 02:04:00,67.8,67.2,29.84,South,180,0.0,-999.0,98,-99.99,,,0.00,Acu-Link.com,2013-06-10 07:04:00,
2013-06-10 02:19:00,67.5,66.9,29.84,NNE,22,0.0,-999.0,98,-99.99,,,0.00,Acu-Link.com,2013-06-10 07:19:00,
2013-06-10 02:35:00,67.5,66.9,29.84,NE,45,0.0,-999.0,98,-99.99,,,0.00,Acu-Link.com,2013-06-10 07:35:00,
2013-06-10 02:50:00,66.9,66.3,29.83,East,90,0.0,-999.0,98,-99.99,,,0.00,Acu-Link.com,2013-06-10 07:50:00,
2013-06-10 03:06:00,66.7,66.1,29.84,West,270,0.0,-999.0,98,-99.99,,,0.00,Acu-Link.com,2013-06-10 08:06:00,
2013-06-10 03:36:00,66.6,66.0,29.84,South,180,0.0,-999.0,98,-99.99,,,0.00,Acu-Link.com,2013-06-10 08:36:00,
2013-06-10 03:52:00,66.2,65.6,29.83,SW,225,0.0,-999.0,98,-99.99,,,0.00,Acu-Link.com,2013-06-10 08:52:00,
2013-06-10 04:07:00,65.8,65.2,29.84,SSW,202,0.0,-999.0,98,-99.99,,,0.00,Acu-Link.com,2013-06-10 09:07:00,
2013-06-10 04:23:00,65.8,65.2,29.84,SSW,202,0.0,-999.0,98,-99.99,,,0.00,Acu-Link.com,2013-06-10 09:23:00,
2013-06-10 04:38:00,65.7,65.1,29.84,SSW,202,0.0,-999.0,98,-99.99,,,0.00,Acu-Link.com,2013-06-10 09:38:00,
2013-06-10 04:53:00,65.5,64.9,29.85,SSE,157,0.0,-999.0,98,-99.99,,,0.00,Acu-Link.com,2013-06-10 09:53:00,
2013-06-10 05:08:00,65.5,64.9,29.85,SSE,157,0.0,-999.0,98,-99.99,,,0.00,Acu-Link.com,2013-06-10 10:08:00,
2013-06-10 05:24:00,65.7,65.1,29.86,SSE,157,0.0,-999.0,98,-99.99,,,0.00,Acu-Link.com,2013-06-10 10:24:00,
2013-06-10 05:40:00,65.7,65.1,29.87,South,180,0.0,-999.0,98,-99.99,,,0.00,Acu-Link.com,2013-06-10 10:40:00,
2013-06-10 05:55:00,66.0,65.4,29.86,South,180,0.0,-999.0,98,-99.99,,,0.00,Acu-Link.com,2013-06-10 10:55:00,
2013-06-10 06:10:00,66.9,66.3,29.87,SSW,202,0.0,-999.0,98,-99.99,,,0.00,Acu-Link.com,2013-06-10 11:10:00,
2013-06-10 06:26:00,67.8,67.2,29.87,SSW,202,0.0,-999.0,98,-99.99,,,0.00,Acu-Link.com,2013-06-10 11:26:00,
2013-06-10 06:41:00,68.9,68.3,29.88,SW,225,0.0,-999.0,98,-99.99,,,0.00,Acu-Link.com,2013-06-10 11:41:00,
2013-06-10 06:56:00,68.9,68.3,29.88,West,270,2.7,-999.0,98,-99.99,,,0.00,Acu-Link.com,2013-06-10 11:56:00,
2013-06-10 07:11:00,68.9,68.3,29.88,SSW,202,0.0,-999.0,98,-99.99,,,0.00,Acu-Link.com,2013-06-10 12:11:00,
2013-06-10 07:27:00,70.3,69.7,29.88,SW,225,0.0,-999.0,98,-99.99,,,0.00,Acu-Link.com,2013-06-10 12:27:00,
2013-06-10 07:42:00,70.0,69.4,29.90,West,270,2.7,-999.0,98,-99.99,,,0.00,Acu-Link.com,2013-06-10 12:42:00,
2013-06-10 07:57:00,69.6,69.0,29.90,NNE,22,2.2,-999.0,98,-99.99,,,0.00,Acu-Link.com,2013-06-10 12:57:00,
2013-06-10 08:13:00,70.2,69.6,29.91,NE,45,1.1,-999.0,98,-99.99,,,0.00,Acu-Link.com,2013-06-10 13:13:00,
2013-06-10 08:28:00,70.7,70.1,29.90,SW,225,0.0,-999.0,98,-99.99,,,0.00,Acu-Link.com,2013-06-10 13:28:00,
2013-06-10 08:43:00,70.3,69.7,29.91,West,270,2.7,-999.0,98,-99.99,,,0.00,Acu-Link.com,2013-06-10 13:43:00,
2013-06-10 08:58:00,69.4,68.8,29.91,West,270,3.2,-999.0,98,-99.99,,,0.01,Acu-Link.com,2013-06-10 13:58:00,
2013-06-10 09:13:00,69.8,52.4,29.91,WNW,292,1.7,-999.0,54,-99.99,,,0.01,Acu-Link.com,2013-06-10 14:13:00,
2013-06-10 09:28:00,70.5,61.8,29.91,WSW,247,2.7,-999.0,74,-99.99,,,0.01,Acu-Link.com,2013-06-10 14:28:00,
2013-06-10 09:43:00,71.4,63.8,29.91,North,0,2.7,-999.0,77,-99.99,,,0.01,Acu-Link.com,2013-06-10 14:43:00,
2013-06-10 09:58:00,70.0,60.9,29.91,NNW,337,0.0,-999.0,73,-99.99,,,0.01,Acu-Link.com,2013-06-10 14:58:00,
2013-06-10 10:13:00,70.9,62.9,29.92,WNW,292,1.7,-999.0,76,-99.99,,,0.01,Acu-Link.com,2013-06-10 15:13:00,
2013-06-10 10:29:00,69.6,58.1,29.93,NNE,22,1.7,-999.0,67,-99.99,,,0.01,Acu-Link.com,2013-06-10 15:29:00,
2013-06-10 10:44:00,70.2,62.3,29.93,NW,315,2.7,-999.0,76,-99.99,,,0.01,Acu-Link.com,2013-06-10 15:44:00,
2013-06-10 10:59:00,71.6,64.4,29.93,East,90,4.7,-999.0,78,-99.99,,,0.01,Acu-Link.com,2013-06-10 15:59:00,
2013-06-10 11:14:00,72.7,66.9,29.93,North,0,4.2,-999.0,82,-99.99,,,0.01,Acu-Link.com,2013-06-10 16:14:00,
2013-06-10 11:29:00,72.1,66.3,29.94,North,0,4.7,-999.0,82,-99.99,,,0.01,Acu-Link.com,2013-06-10 16:29:00,
2013-06-10 11:44:00,70.7,63.9,29.95,WSW,247,4.2,-999.0,79,-99.99,,,0.01,Acu-Link.com,2013-06-10 16:44:00,
2013-06-10 11:59:00,70.2,61.9,29.94,WSW,247,3.2,-999.0,75,-99.99,,,0.01,Acu-Link.com,2013-06-10 16:59:00,
2013-06-10 12:14:00,70.2,62.3,29.94,West,270,7.3,-999.0,76,-99.99,,,0.01,Acu-Link.com,2013-06-10 17:14:00,
2013-06-10 12:29:00,70.3,62.0,29.95,West,270,6.3,-999.0,75,-99.99,,,0.01,Acu-Link.com,2013-06-10 17:29:00,
2013-06-10 12:45:00,72.9,67.1,29.95,NNW,337,3.2,-999.0,82,-99.99,,,0.01,Acu-Link.com,2013-06-10 17:45:00,
2013-06-10 13:00:00,74.3,68.4,29.95,NNE,22,2.2,-999.0,82,-99.99,,,0.01,Acu-Link.com,2013-06-10 18:00:00,
2013-06-10 13:15:00,77.2,69.8,29.94,SSW,202,1.7,-999.0,78,-99.99,,,0.01,Acu-Link.com,2013-06-10 18:15:00,
2013-06-10 13:30:00,76.3,69.7,29.94,WSW,247,2.7,-999.0,80,-99.99,,,0.01,Acu-Link.com,2013-06-10 18:30:00,
2013-06-10 13:45:00,75.2,69.0,29.94,West,270,3.7,-999.0,81,-99.99,,,0.01,Acu-Link.com,2013-06-10 18:45:00,
2013-06-10 14:00:00,76.5,68.4,29.94,NE,45,4.7,-999.0,76,-99.99,,,0.01,Acu-Link.com,2013-06-10 19:00:00,
2013-06-10 14:15:00,76.5,68.7,29.94,West,270,5.3,-999.0,77,-99.99,,,0.01,Acu-Link.com,2013-06-10 19:15:00,
2013-06-10 14:30:00,77.0,69.2,29.94,NNE,22,4.2,-999.0,77,-99.99,,,0.01,Acu-Link.com,2013-06-10 19:30:00,
2013-06-10 14:45:00,76.5,68.7,29.94,NW,315,5.8,-999.0,77,-99.99,,,0.01,Acu-Link.com,2013-06-10 19:45:00,
2013-06-10 15:01:00,80.8,68.4,29.94,West,270,3.2,-999.0,66,-99.99,,,0.01,Acu-Link.com,2013-06-10 20:01:00,
2013-06-10 15:16:00,78.6,68.8,29.94,WNW,292,3.2,-999.0,72,-99.99,,,0.01,Acu-Link.com,2013-06-10 20:16:00,
2013-06-10 15:31:00,81.1,68.6,29.93,West,270,6.3,-999.0,66,-99.99,,,0.01,Acu-Link.com,2013-06-10 20:31:00,
2013-06-10 15:46:00,79.9,67.9,29.94,North,0,6.8,-999.0,67,-99.99,,,0.01,Acu-Link.com,2013-06-10 20:46:00,
2013-06-10 16:01:00,83.8,69.8,29.94,West,270,5.8,-999.0,63,-99.99,,,0.01,Acu-Link.com,2013-06-10 21:01:00,
2013-06-10 16:16:00,79.9,66.6,29.94,West,270,8.3,-999.0,64,-99.99,,,0.01,Acu-Link.com,2013-06-10 21:16:00,
2013-06-10 16:31:00,82.4,67.1,29.94,WSW,247,5.8,-999.0,60,-99.99,,,0.01,Acu-Link.com,2013-06-10 21:31:00,
2013-06-10 17:01:00,81.1,67.7,29.94,NNW,337,6.3,-999.0,64,-99.99,,,0.01,Acu-Link.com,2013-06-10 22:01:00,
2013-06-10 17:17:00,79.3,67.4,29.94,West,270,7.8,-999.0,67,-99.99,,,0.01,Acu-Link.com,2013-06-10 22:17:00,
2013-06-10 17:32:00,81.1,67.3,29.94,WSW,247,3.2,-999.0,63,-99.99,,,0.01,Acu-Link.com,2013-06-10 22:32:00,
2013-06-10 17:47:00,80.2,66.4,29.94,West,270,4.7,-999.0,63,-99.99,,,0.01,Acu-Link.com,2013-06-10 22:47:00,
2013-06-10 18:02:00,81.5,65.8,29.94,West,270,4.7,-999.0,59,-99.99,,,0.01,Acu-Link.com,2013-06-10 23:02:00,
2013-06-10 18:17:00,83.5,66.1,29.93,West,270,4.2,-999.0,56,-99.99,,,0.01,Acu-Link.com,2013-06-10 23:17:00,
2013-06-10 18:32:00,82.8,66.0,29.93,WSW,247,4.2,-999.0,57,-99.99,,,0.01,Acu-Link.com,2013-06-10 23:32:00,
2013-06-10 18:47:00,81.7,66.0,29.93,West,270,3.7,-999.0,59,-99.99,,,0.01,Acu-Link.com,2013-06-10 23:47:00,
2013-06-10 19:02:00,82.9,66.1,29.93,NW,315,1.7,-999.0,57,-99.99,,,0.01,Acu-Link.com,2013-06-11 00:02:00,
2013-06-10 19:17:00,82.0,66.2,29.94,WNW,292,3.7,-999.0,59,-99.99,,,0.01,Acu-Link.com,2013-06-11 00:17:00,
2013-06-10 19:33:00,81.7,66.0,29.93,West,270,4.7,-999.0,59,-99.99,,,0.01,Acu-Link.com,2013-06-11 00:33:00,
2013-06-10 19:48:00,80.1,65.4,29.94,WNW,292,0.0,-999.0,61,-99.99,,,0.01,Acu-Link.com,2013-06-11 00:48:00,
2013-06-10 20:03:00,78.6,65.8,29.94,West,270,0.0,-999.0,65,-99.99,,,0.01,Acu-Link.com,2013-06-11 01:03:00,
2013-06-10 20:18:00,76.6,66.5,29.94,SW,225,0.0,-999.0,71,-99.99,,,0.01,Acu-Link.com,2013-06-11 01:18:00,
2013-06-10 20:33:00,74.7,66.2,29.94,SSW,202,0.0,-999.0,75,-99.99,,,0.01,Acu-Link.com,2013-06-11 01:33:00,
2013-06-10 20:48:00,73.2,66.3,29.94,West,270,0.0,-999.0,79,-99.99,,,0.01,Acu-Link.com,2013-06-11 01:48:00,
2013-06-10 21:03:00,72.0,66.2,29.94,SW,225,0.0,-999.0,82,-99.99,,,0.01,Acu-Link.com,2013-06-11 02:03:00,
2013-06-10 21:18:00,70.9,65.1,29.95,SW,225,0.0,-999.0,82,-99.99,,,0.01,Acu-Link.com,2013-06-11 02:18:00,
2013-06-10 21:33:00,70.0,64.9,29.95,SW,225,0.0,-999.0,84,-99.99,,,0.01,Acu-Link.com,2013-06-11 02:33:00,
2013-06-10 21:49:00,69.3,63.6,29.96,WSW,247,0.0,-999.0,82,-99.99,,,0.01,Acu-Link.com,2013-06-11 02:49:00,
2013-06-10 22:04:00,68.7,62.3,29.96,East,90,0.0,-999.0,80,-99.99,,,0.01,Acu-Link.com,2013-06-11 03:04:00,
2013-06-10 22:19:00,67.8,61.0,29.97,SSW,202,0.0,-999.0,79,-99.99,,,0.01,Acu-Link.com,2013-06-11 03:19:00,
2013-06-10 22:34:00,67.1,53.2,29.96,SSW,202,0.0,-999.0,61,-99.99,,,0.01,Acu-Link.com,2013-06-11 03:34:00,
2013-06-10 22:49:00,66.6,41.5,29.97,SW,225,0.0,-999.0,40,-99.99,,,0.01,Acu-Link.com,2013-06-11 03:49:00,
2013-06-10 23:04:00,65.8,42.1,29.97,South,180,0.0,-999.0,42,-99.99,,,0.01,Acu-Link.com,2013-06-11 04:04:00,
2013-06-10 23:19:00,65.5,19.5,29.97,SW,225,0.0,-999.0,17,-99.99,,,0.01,Acu-Link.com,2013-06-11 04:19:00,
2013-06-10 23:34:00,65.3,64.7,29.97,SW,225,0.0,-999.0,98,-99.99,,,0.01,Acu-Link.com,2013-06-11 04:34:00,
2013-06-10 23:49:00,65.3,64.7,29.97,SW,225,0.0,-999.0,98,-99.99,,,0.01,Acu-Link.com,2013-06-11 04:49:00,